When you browse on this site, cookies collect data to enhance your experience and personalize the content and advertising you see.
Visit our Privacy Policy to learn more. By continuing to use the site, you agree to this use of cookies and data.

Hourly Weather Tamale

Today, 13 August, Thursday

Time Temperature Precipitation Wind Pressure Humidity
00:00 +24°C° 0 mm 1 mps 743 mmHg 88%
01:00 +24°C° 0 mm 1 mps 743 mmHg 89%
02:00 +21°C° 0 mm 0 mps 743 mmHg 90%
03:00 +21°C° 0 mm 0 mps 743 mmHg 91%
04:00 +21°C° 0 mm 0 mps 743 mmHg 91%
05:00 +21°C° 0 mm 0 mps 744 mmHg 91%
06:00 +21°C° 0 mm 0 mps 744 mmHg 92%
07:00 +25°C° 0 mm 1 mps 744 mmHg 83%
08:00 +27°C° 0 mm 1 mps 744 mmHg 74%
09:00 +29°C° 0 mm 2 mps 745 mmHg 65%
10:00 +31°C° 0 mm 1 mps 744 mmHg 60%
11:00 +32°C° 0 mm 1 mps 744 mmHg 56%
12:00 +34°C° 0 mm 1 mps 744 mmHg 52%
13:00 +33°C° 0 mm 1 mps 743 mmHg 53%
14:00 +33°C° 0 mm 1 mps 742 mmHg 54%
15:00 +32°C° 0 mm 1 mps 742 mmHg 54%
16:00 +31°C° 0 mm 1 mps 742 mmHg 59%
17:00 +30°C° 0 mm 1 mps 741 mmHg 64%
18:00 +29°C° 0 mm 1 mps 741 mmHg 69%
19:00 +28°C° 0 mm 1 mps 742 mmHg 71%
20:00 +25°C° 0 mm 0 mps 742 mmHg 73%
21:00 +24°C° 0 mm 0 mps 742 mmHg 74%
22:00 +24°C° 0 mm 0 mps 742 mmHg 76%
23:00 +24°C° 0 mm 0 mps 742 mmHg 77%

Tomorrow, 14 August, Friday

Time Temperature Precipitation Wind Pressure Humidity
00:00 +23°C° 0 mm 0 mps 743 mmHg 78%
01:00 +23°C° 0 mm 0 mps 742 mmHg 79%
02:00 +25°C° 0 mm 1 mps 742 mmHg 81%
03:00 +25°C° 0 mm 1 mps 741 mmHg 82%
04:00 +25°C° 0.3 mm 1 mps 741 mmHg 84%
05:00 +25°C° 0.3 mm 1 mps 742 mmHg 87%
06:00 +23°C° 0.3 mm 0 mps 742 mmHg 90%
07:00 +24°C° 1.4 mm 1 mps 742 mmHg 92%
08:00 +24°C° 1.4 mm 1 mps 743 mmHg 94%
09:00 +24°C° 1.4 mm 2 mps 743 mmHg 96%
10:00 +24°C° 2.6 mm 2 mps 743 mmHg 95%
11:00 +25°C° 2.6 mm 3 mps 743 mmHg 95%
12:00 +25°C° 2.6 mm 3 mps 743 mmHg 95%
13:00 +25°C° 0 mm 3 mps 742 mmHg 92%
14:00 +26°C° 0 mm 2 mps 741 mmHg 89%
15:00 +27°C° 0 mm 2 mps 741 mmHg 86%
16:00 +26°C° 0 mm 2 mps 741 mmHg 87%
17:00 +26°C° 0 mm 2 mps 741 mmHg 88%
18:00 +26°C° 0 mm 2 mps 741 mmHg 89%
19:00 +25°C° 0 mm 2 mps 741 mmHg 92%
20:00 +24°C° 0 mm 2 mps 741 mmHg 94%
21:00 +24°C° 0 mm 2 mps 741 mmHg 97%
22:00 +24°C° 0 mm 2 mps 741 mmHg 96%
23:00 +24°C° 0 mm 2 mps 741 mmHg 96%

Day after tomorrow, 15 August, Saturday

Time Temperature Precipitation Wind Pressure Humidity
00:00 +24°C° 0 mm 2 mps 741 mmHg 96%
01:00 +24°C° 0 mm 2 mps 741 mmHg 95%
02:00 +24°C° 0 mm 1 mps 741 mmHg 95%
03:00 +24°C° 0 mm 1 mps 741 mmHg 95%
04:00 +24°C° 2.4 mm 1 mps 741 mmHg 96%
05:00 +24°C° 2.4 mm 1 mps 741 mmHg 97%
06:00 +24°C° 2.4 mm 1 mps 742 mmHg 98%
07:00 +24°C° 1.6 mm 2 mps 742 mmHg 97%
08:00 +24°C° 1.6 mm 3 mps 742 mmHg 96%
09:00 +25°C° 1.6 mm 4 mps 743 mmHg 95%
10:00 +25°C° 0.4 mm 3 mps 743 mmHg 94%
11:00 +25°C° 0.4 mm 3 mps 742 mmHg 94%
12:00 +25°C° 0.4 mm 3 mps 742 mmHg 94%
13:00 +24°C° 0.5 mm 3 mps 742 mmHg 95%
14:00 +24°C° 0.5 mm 3 mps 741 mmHg 96%
15:00 +24°C° 0.5 mm 3 mps 741 mmHg 96%
16:00 +23°C° 0.3 mm 2 mps 741 mmHg 97%
17:00 +23°C° 0.3 mm 2 mps 741 mmHg 97%
18:00 +23°C° 0.3 mm 2 mps 741 mmHg 97%
19:00 +23°C° 0 mm 2 mps 741 mmHg 97%
20:00 +23°C° 0 mm 2 mps 742 mmHg 97%
21:00 +23°C° 0 mm 1 mps 742 mmHg 97%
22:00 +23°C° 0 mm 1 mps 742 mmHg 97%
23:00 +23°C° 0 mm 1 mps 742 mmHg 98%

16 August, Sunday

Time Temperature Precipitation Wind Pressure Humidity
00:00 +22°C° 0 mm 1 mps 742 mmHg 98%
01:00 +23°C° 0 mm 1 mps 742 mmHg 98%
02:00 +23°C° 0 mm 1 mps 742 mmHg 98%
03:00 +23°C° 0 mm 1 mps 742 mmHg 97%
04:00 +23°C° 0 mm 1 mps 742 mmHg 97%
05:00 +23°C° 0 mm 1 mps 742 mmHg 97%
06:00 +23°C° 0 mm 1 mps 742 mmHg 97%
07:00 +24°C° 0 mm 2 mps 743 mmHg 92%
08:00 +25°C° 0 mm 2 mps 743 mmHg 86%
09:00 +27°C° 0 mm 3 mps 744 mmHg 80%
10:00 +28°C° 0 mm 3 mps 743 mmHg 75%
11:00 +29°C° 0 mm 3 mps 743 mmHg 70%
12:00 +30°C° 0 mm 3 mps 743 mmHg 66%
13:00 +31°C° 0 mm 3 mps 742 mmHg 64%
14:00 +31°C° 0 mm 3 mps 741 mmHg 63%
15:00 +33°C° 0 mm 3 mps 741 mmHg 61%
16:00 +30°C° 0 mm 2 mps 741 mmHg 67%
17:00 +29°C° 0 mm 2 mps 741 mmHg 72%
18:00 +28°C° 0 mm 1 mps 740 mmHg 78%
19:00 +27°C° 0 mm 1 mps 741 mmHg 80%
20:00 +26°C° 0 mm 1 mps 742 mmHg 82%
21:00 +25°C° 0 mm 1 mps 742 mmHg 84%
22:00 +25°C° 0 mm 1 mps 742 mmHg 85%
23:00 +24°C° 0 mm 1 mps 742 mmHg 87%

17 August, Monday

Time Temperature Precipitation Wind Pressure Humidity
00:00 +24°C° 0 mm 1 mps 742 mmHg 88%
01:00 +24°C° 0 mm 1 mps 742 mmHg 89%
02:00 +24°C° 0 mm 1 mps 741 mmHg 89%
03:00 +23°C° 0 mm 1 mps 741 mmHg 89%
04:00 +23°C° 0 mm 1 mps 742 mmHg 90%
05:00 +23°C° 0 mm 1 mps 742 mmHg 91%
06:00 +23°C° 0 mm 1 mps 742 mmHg 92%
07:00 +24°C° 0 mm 1 mps 743 mmHg 89%
08:00 +25°C° 0 mm 2 mps 743 mmHg 86%
09:00 +26°C° 0 mm 2 mps 744 mmHg 83%
10:00 +28°C° 0.1 mm 2 mps 743 mmHg 77%
11:00 +29°C° 0.1 mm 2 mps 743 mmHg 70%
12:00 +31°C° 0.1 mm 3 mps 742 mmHg 63%
13:00 +31°C° 0 mm 3 mps 741 mmHg 62%
14:00 +33°C° 0 mm 3 mps 741 mmHg 61%
15:00 +33°C° 0 mm 3 mps 740 mmHg 60%
16:00 +31°C° 0 mm 2 mps 740 mmHg 66%
17:00 +29°C° 0 mm 2 mps 740 mmHg 73%
18:00 +28°C° 0 mm 2 mps 740 mmHg 79%
19:00 +28°C° 0 mm 2 mps 740 mmHg 79%
20:00 +27°C° 0 mm 2 mps 741 mmHg 79%
21:00 +27°C° 0 mm 2 mps 742 mmHg 80%
22:00 +26°C° 0 mm 2 mps 742 mmHg 82%
23:00 +26°C° 0 mm 1 mps 742 mmHg 83%

18 August, Tuesday

Time Temperature Precipitation Wind Pressure Humidity
00:00 +25°C° 0 mm 1 mps 742 mmHg 85%
01:00 +25°C° 0 mm 1 mps 741 mmHg 86%
02:00 +25°C° 0 mm 1 mps 741 mmHg 87%
03:00 +24°C° 0 mm 1 mps 741 mmHg 88%
04:00 +24°C° 0 mm 1 mps 741 mmHg 87%
05:00 +25°C° 0 mm 2 mps 742 mmHg 86%
06:00 +25°C° 0 mm 2 mps 742 mmHg 86%
07:00 +26°C° 0 mm 2 mps 742 mmHg 81%
08:00 +27°C° 0 mm 3 mps 743 mmHg 75%
09:00 +28°C° 0 mm 3 mps 743 mmHg 70%
10:00 +30°C° 0 mm 3 mps 742 mmHg 67%
11:00 +31°C° 0 mm 3 mps 742 mmHg 63%
12:00 +33°C° 0 mm 3 mps 741 mmHg 60%
13:00 +33°C° 0 mm 3 mps 741 mmHg 59%
14:00 +34°C° 0 mm 2 mps 740 mmHg 58%
15:00 +34°C° 0 mm 2 mps 739 mmHg 58%
16:00 +32°C° 0 mm 2 mps 739 mmHg 63%
17:00 +30°C° 0 mm 2 mps 739 mmHg 69%
18:00 +29°C° 0 mm 2 mps 739 mmHg 74%
19:00 +28°C° 0 mm 2 mps 740 mmHg 76%
20:00 +27°C° 0 mm 2 mps 740 mmHg 78%
21:00 +27°C° 0 mm 2 mps 741 mmHg 79%
22:00 +26°C° 0.1 mm 2 mps 741 mmHg 81%
23:00 +26°C° 0.1 mm 2 mps 740 mmHg 83%
Show more